Flag for Austria Weather past 2 weeks in Mattersburg, Burgenland, Austria

Now
53 °F

Sprinkles. Overcast.


Feels Like: 50 °F
Forecast: 50 / 53 °F
Wind: 8 mph from Northwest

Location: Eisenstadt

Current Time: May 23, 2015 at 12:53:44 AM

Latest Report: May 23, 2015 at 12:00 AM


Visibility: N/A

Pressure: 30.03 "Hg

Humidity: 90%

Dew point: 50 °F

Location of MattersburgLocation

Historic Weather in Mattersburg — Graph

°F

Mattersburg temperature yesterday

Maximum temperature yesterday: 55 °F (at 1:00 AM)
Minimum temperature yesterday: 53 °F (at 8:00 PM)
Average temperature yesterday: 54 °F

Past Weeks' High & Low Weather Summary

 TemperatureHumidityPressure
High78 °F (May 12, 4:00 PM)95% (May 16, 12:00 AM)30.39 "Hg (May 16, 12:00 AM)
Low46 °F (May 11, 6:00 AM)29% (May 12, 12:00 PM)29.73 "Hg (May 19, 6:00 AM)
Average61 °F66%30.04 "Hg
* Reported May 7 10:00 PM — May 22 10:00 PM, Mattersburg, Weather by CustomWeather, © 2015

Note: Actual official high and low records may vary slightly from our data, if they occured in-between our weather recording intervals... More about our weather records

Advertising

Mattersburg weather history for previous 24 hours

 ConditionsComfort  
Time TempWeatherWind HumidityBarometerVisibility
10:00 PM
Fri, May 22
53 °FFog.1 mph92%30.06 "HgN/A
9:00 PM53 °FFog.6 mph90%30.06 "HgN/A
8:00 PM53 °FRain. Overcast.7 mph89%30.07 "Hg6 mi
7:00 PM53 °FLight rain. Overcast.7 mph91%30.07 "Hg6 mi
6:00 PM53 °FFog.6 mph90%30.08 "HgN/A
5:00 PM54 °FLight rain. Overcast.6 mph89%30.09 "Hg7 mi
4:00 PM54 °FFog.5 mph90%30.11 "HgN/A
3:00 PM54 °FFog.5 mph90%30.11 "HgN/A
2:00 PM54 °FCool.3 mph90%30.14 "HgN/A
1:00 PM55 °FFog.3 mph86%30.14 "HgN/A
12:00 PM55 °FFog.5 mph82%30.14 "HgN/A
11:00 AM54 °FLight rain. Overcast.5 mph82%30.14 "Hg7 mi
10:00 AM55 °FCool.5 mph75%30.15 "HgN/A
9:00 AM55 °FCool.6 mph70%30.14 "HgN/A
8:00 AM55 °FOvercast.6 mph70%30.14 "Hg9 mi
7:00 AM55 °FOvercast.6 mph70%30.14 "Hg9 mi
6:00 AM54 °FOvercast.6 mph71%30.14 "Hg9 mi
5:00 AM54 °FOvercast.3 mph69%30.14 "Hg9 mi
4:00 AM55 °FOvercast.5 mph68%30.14 "Hg9 mi
3:00 AM55 °FCool.3 mph69%30.15 "HgN/A
2:00 AM55 °FCool.3 mph68%30.15 "HgN/A
1:00 AM55 °FCool.3 mph69%30.14 "HgN/A
12:00 AM55 °FCool.5 mph71%30.14 "HgN/A
Weather by CustomWeather, © 2015

See weather overviewHow to use our weather pages